Location: *
(32.8140°S, 174.6161°E)
Time: 19:56:20
(UTC+00:00)

Cosmos 2056 Rocket - Pass Details

Date: 10 December 2019
Orbit: 741 x 801 km, 74.0° (Epoch: 18 January)

Event Time Altitude Azimuth Distance (km) Brightness Sun altitude
Rises 15:17:52 0° 201° (SSW) 3,286 7.1 -19.1°
Reaches altitude 10° 15:20:18 10° 203° (SSW) 2,342 6.3 -18.8°
Maximum altitude 15:25:34 64° 284° (WNW) 849 3.5 -18.0°
Enters shadow 15:29:34 17° 2° (N) 1,860 5.1 -17.4°
